Location: ????????
(55.3975°N, 38.2844°E)
Time: 00:29:37
(UTC+00:00)

UNK - Pass Details

Date: 07 December 2025
Orbit: 654 x 672 km, 98.4° (Epoch: 17 April)

Event Time Altitude Azimuth Distance (km) Brightness Sun altitude
Exits shadow 13:53:41 - 28° (NNE) 2,584 6.2 -7.3°
Reaches altitude 10° 13:55:03 10° 36° (NE) 2,109 5.7 -7.5°
Drops below altitude 10° 14:02:43 10° 150° (SSE) 2,086 6.3 -8.5°
Enters shadow 15:09:17 -47° 15° (NNE) 10,276 9.7 -17.2°
Maximum altitude 15:36:08 54° 293° (WNW) 814 4.4 -21.0°
